{"data":{"norad_id":68753,"epoch":"2026-05-25T03:44:41.441280Z","epoch_age_seconds":65004,"freshness":"FRESH","line1":"1 68753U 26083A   26145.15603520  .00003752  00000+0  15829-3 0  9992","line2":"2 68753  98.2702 294.2121 0062487 308.7179  50.8478 15.22281848  5820","mean_motion":15.22281848,"eccentricity":0.0062487,"inclination_deg":98.2702,"raan_deg":294.2121,"arg_perigee_deg":308.7179,"mean_anomaly_deg":50.8478,"bstar":0.00015829,"rev_number":582,"period_min":94.59483484559,"perigee_km":455.98675000076,"apogee_km":541.93257784849,"semimajor_km":6877.0966639246,"source":"CELESTRAK","updated_at":"2026-05-25T13:38:08.059265Z"}}